Hamilton, OH

7:58 PM EST on January 23, 2018 (GMT -0500)
Butler County Regional

Weather History for KHAO - June, 2013

Change the Weather History Date:

Tuesday, June 18, 2013

  Actual Average (KLUK) Record (KLUK)
Temperature  
Mean Temperature 75 °F -  
Max Temperature 86 °F 83 °F 97 °F (1962)
Min Temperature 66 °F 63 °F 44 °F (1999)
Cooling Degree Days 10    
Growing Degree Days 25 (Base 50)    
Moisture  
Dew Point 64 °F    
Average Humidity 79    
Maximum Humidity 100    
Minimum Humidity 48    
Precipitation  
Precipitation 0.17 in - - ()
Sea Level Pressure  
Sea Level Pressure 29.92 in    
Wind  
Wind Speed 4 mph (NNW)    
Max Wind Speed 13 mph    
Max Gust Speed 22 mph    
Visibility 8 miles    
Events Rain , Thunderstorm    
Averages and records for this station are not official NWS values.
T = Trace of Precipitation, MM = Missing Value Source: NWS Daily Summary

Daily Weather History Graph

Daily Weather History Graph

Search for Another Location

Airport or City:

Trip Planner

Search our weather history database for the weather conditions in past years. The results will help you decide how hot, cold, wet, or windy it might be!

Date:

Astronomy

Jun. 18, 2013 Rise Set
Actual Time 6:10 AM EDT 9:07 PM EDT
Civil Twilight 5:38 AM EDT 9:40 PM EDT
Nautical Twilight 4:57 AM EDT 10:21 PM EDT
Astronomical Twilight 4:10 AM EDT 11:08 PM EDT
Moon 3:52 PM EDT (6/18) 2:17 AM EDT (6/18)
Length of Visible Light 16h 01m
Length of Day
14h 56m
Waxing Gibbous, 70% of the Moon is Illuminated
Jun 18
Waxing Gibbous
Jun 23
Full
Jun 30
Last Quarter
Jul 8
New
Jul 15
First Quarter

Hourly Weather History & Observations

Time (EDT) Temp. Heat Index Dew Point Humidity Pressure Visibility Wind Dir Wind Speed Gust Speed Precip Events Conditions
12:09 AM 73.4 °F - 62.6 °F 69% 29.94 in 10.0 mi WSW 10.4 mph 21.9 mph N/A   Scattered Clouds
12:53 AM 70.0 °F - 63.0 °F 78% 29.90 in 10.0 mi WSW 3.5 mph - N/A   Scattered Clouds
1:53 AM 70.0 °F - 64.0 °F 81% 29.90 in 10.0 mi WSW 3.5 mph - N/A   Mostly Cloudy
2:53 AM 68.0 °F - 64.0 °F 87% 29.89 in 10.0 mi Calm Calm - N/A   Clear
3:53 AM 66.9 °F - 64.0 °F 90% 29.88 in 10.0 mi Calm Calm - N/A   Mostly Cloudy
4:53 AM 69.1 °F - 64.0 °F 84% 29.87 in 10.0 mi Calm Calm - N/A   Mostly Cloudy
5:19 AM 68.0 °F - 64.4 °F 88% 29.91 in 10.0 mi SSE 6.9 mph - N/A Thunderstorm Scattered Clouds
5:45 AM 69.8 °F - 64.4 °F 83% 29.91 in 10.0 mi South 3.5 mph - N/A   Mostly Cloudy
5:53 AM 69.1 °F - 64.0 °F 84% 29.91 in 10.0 mi Calm Calm - N/A   Mostly Cloudy
6:20 AM 68.0 °F - 64.4 °F 88% 29.92 in 10.0 mi Calm Calm - N/A Thunderstorm Overcast
6:35 AM 68.0 °F - 64.4 °F 88% 29.92 in 10.0 mi North 5.8 mph - N/A   Overcast
6:48 AM 66.2 °F - 64.4 °F 94% 29.92 in 10.0 mi Calm Calm - N/A Thunderstorm Overcast
6:53 AM 66.9 °F - 64.0 °F 90% 29.91 in 10.0 mi Calm Calm - N/A Thunderstorm Mostly Cloudy
7:10 AM 69.8 °F - 64.4 °F 83% 29.94 in 10.0 mi Calm Calm - N/A Thunderstorm Overcast
7:28 AM 69.8 °F - 64.4 °F 83% 29.94 in 9.0 mi Calm Calm - 0.00 in Rain Light Rain
7:53 AM 68.0 °F - 64.9 °F 90% 29.93 in 6.0 mi North 4.6 mph - 0.01 in Rain Light Rain
8:14 AM 66.2 °F - 64.4 °F 94% 29.95 in 7.0 mi Calm Calm - 0.01 in Rain , Thunderstorm Light Rain
8:24 AM 66.2 °F - 64.4 °F 94% 29.96 in 4.0 mi Calm Calm - 0.02 in Rain Light Rain
8:47 AM 66.2 °F - 64.4 °F 94% 29.97 in 1.8 mi NW 3.5 mph - 0.09 in Rain Heavy Rain
8:48 AM 66.9 °F - 64.9 °F 93% 29.96 in 1.8 mi NW 3.5 mph - 0.09 in Rain Heavy Rain
8:55 AM 66.2 °F - 64.4 °F 94% 29.96 in 1.5 mi Calm Calm - 0.03 in Rain Heavy Rain
9:02 AM 66.2 °F - 64.4 °F 94% 29.96 in 2.0 mi West 3.5 mph - 0.05 in Rain Rain
9:13 AM 66.2 °F - 64.4 °F 94% 29.95 in 5.0 mi Calm Calm - 0.05 in Rain Light Rain
9:27 AM 66.2 °F - 66.2 °F 100% 29.96 in 4.0 mi Variable 3.5 mph - 0.05 in Rain Light Rain
9:53 AM 66.9 °F - 64.9 °F 93% 29.94 in 6.0 mi Calm Calm - 0.07 in Rain Light Rain
10:53 AM 70.0 °F - 66.0 °F 87% 29.93 in 10.0 mi WNW 5.8 mph - 0.00 in   Mostly Cloudy
11:53 AM 75.0 °F - 68.0 °F 79% 29.93 in 10.0 mi Calm Calm - N/A   Clear
12:53 PM 78.1 °F - 68.0 °F 71% 29.91 in 10.0 mi Variable 4.6 mph - N/A   Mostly Cloudy
1:03 PM 80.6 °F 83.9 °F 69.8 °F 70% 29.93 in 10.0 mi NNW 6.9 mph - N/A   Scattered Clouds
1:53 PM 81.0 °F 83.3 °F 66.9 °F 62% 29.91 in 10.0 mi East 3.5 mph - N/A   Clear
2:53 PM 81.0 °F 83.3 °F 66.9 °F 62% 29.89 in 10.0 mi Calm Calm - N/A   Mostly Cloudy
3:53 PM 84.0 °F 85.8 °F 64.9 °F 53% 29.89 in 10.0 mi NNW 5.8 mph - N/A   Mostly Cloudy
4:53 PM 84.9 °F 85.9 °F 63.0 °F 48% 29.87 in 10.0 mi NW 3.5 mph - N/A   Scattered Clouds
5:53 PM 81.0 °F 81.9 °F 62.1 °F 52% 29.87 in 10.0 mi North 10.4 mph - N/A   Clear
6:53 PM 80.1 °F 81.2 °F 62.1 °F 54% 29.88 in 10.0 mi North 5.8 mph - N/A   Clear
7:53 PM 77.0 °F - 62.1 °F 60% 29.91 in 10.0 mi North 4.6 mph - N/A   Clear
8:53 PM 75.0 °F - 61.0 °F 62% 29.93 in 10.0 mi North 4.6 mph - N/A   Clear
9:53 PM 72.0 °F - 61.0 °F 68% 29.95 in 10.0 mi NNE 5.8 mph - N/A   Clear
10:53 PM 72.0 °F - 60.1 °F 66% 29.98 in 10.0 mi ENE 12.7 mph - N/A   Clear
11:53 PM 70.0 °F - 59.0 °F 68% 30.00 in 10.0 mi ENE 8.1 mph - N/A   Clear